This demonstration page uses our WeatherBlox Daily Observations layout. Learn more.

Left ArrowRight Arrow

Hourly Observations for October 4, 2021

Temp ( °F °C ) Dew Point ( °F °C ) Humidity (%) Winds ( mph kmh ) Pressure ( in mb ) Visibility ( mi km ) Precip ( " mm )
12:53 am 00:53 Clear 66 18.9 45 7.2 47 47 ENE 5 7 30.03 1017 10 16 N/A
1:53 am 01:53 Clear 65 18.3 45 7.2 49 49 E 7 11 30.02 1017 10 16 N/A
2:53 am 02:53 Clear 65 18.3 46 7.8 51 51 ESE 8 13 30.02 1017 10 16 N/A
3:53 am 03:53 Clear 61 16.1 46 7.8 58 58 ENE 3 6 30.02 1017 10 16 N/A
4:53 am 04:53 Clear 56 13.3 43 6.1 62 62 N 5 7 30.03 1017 10 16 N/A
5:53 am 05:53 Clear 55 12.8 44 6.7 67 67 N 6 9 30.04 1017 10 16 N/A
6:53 am 06:53 Clear 55 12.8 45 7.2 69 69 N 6 9 30.05 1018 10 16 N/A
7:53 am 07:53 Sunny 54 12.2 45 7.2 72 72 N 6 9 30.07 1018 10 16 N/A
8:53 am 08:53 Sunny 60 15.6 47 8.3 62 62 NNE 5 7 30.08 1019 10 16 N/A
9:53 am 09:53 Sunny 70 21.1 54 12.2 57 57 SE 5 7 30.09 1019 10 16 N/A
10:53 am 10:53 Sunny 75 23.9 58 14.4 55 55 SSE 10 17 30.08 1019 10 16 N/A
11:53 am 11:53 Sunny 78 25.6 58 14.4 50 50 SSW 5 7 30.07 1018 10 16 N/A
12:53 pm 12:53 Sunny 82 27.8 54 12.2 38 38 SW 5 7 30.06 1018 10 16 N/A
1:53 pm 13:53 Sunny 83 28.3 51 10.6 33 33 N N/A 30.04 1017 10 16 N/A
2:53 pm 14:53 Mostly Sunny 86 30 44 6.7 23 23 SE 10 17 29.99 1016 10 16 N/A
3:53 pm 15:53 Sunny 87 30.6 39 3.9 18 18 S 8 13 29.97 1015 10 16 N/A
4:53 pm 16:53 Sunny 87 30.6 39 3.9 18 18 VRB 3 6 29.96 1015 10 16 N/A
5:53 pm 17:53 Sunny 86 30 40 4.4 20 20 S 6 9 29.96 1015 10 16 N/A
6:53 pm 18:53 Partly Cloudy 85 29.4 41 5 21 21 N N/A 29.96 1014 10 16 N/A
7:53 pm 19:53 Mostly Cloudy 81 27.2 41 5 24 24 SSE 6 9 29.97 1015 10 16 N/A
8:53 pm 20:53 Mostly Clear 76 24.4 41 5 29 29 SSE 8 13 29.98 1015 10 16 N/A
9:53 pm 21:53 Clear 72 22.2 41 5 33 33 SSE 8 13 29.99 1016 10 16 N/A
10:53 pm 22:53 Clear 71 21.7 41 5 34 34 SE 8 13 30.00 1016 10 16 N/A
11:53 pm 23:53 Clear 68 20 41 5 38 38 SE 7 11 29.99 1016 10 16 N/A

Powered by AerisWeather